SL-8 DEB, 1549

Orbit data source: Space-Track

SL-8 DEB, 1549 is space debris in LEO originally from a launch on Mon, 15 Mar 1965 UTC launched from the Tyuratam Missile And Space Complex (TTMTR). Debris objects in space refer to the collection of defunct objects orbiting the Earth. Examples of debris include non-operational satellites, rocket bodies, and fragments generated from explosions, collisions, or faulty payload assembly.

Loading next visibility...
Identifier
1549, 1965-020CV
Orbit
LEO
Country
Flag of CISCIS
Related business
Manufacturer
Unknown
Mission
Spacecraft
Bus & Motor
Unknown
Mass
Unknown
Launch date (UTC)
1965-03-15 (61 years ago)
Launch vehicle
Unknown
Launch site
Tyuratam Missile And Space Complex (TTMTR)
Object type
Payload
Rocket body
Debris
Shape & HBR
Unknown shape, 0.1 m
Radar Cross Section
Medium (>0.1 m² and <1 m²)

Expand to show TLE details & history
Last TLE update: 23 hours ago

TLE from 23 hours ago
0 SL-8 DEB
1 01549U 65020CV  25340.70130686  .00002208  00000-0  30721-2 0  9994
2 01549  56.1658 102.6495 0840210 197.5344 159.4856 12.64388492790592
Epoch: 2025-12-06T16:49Z
TLE epoch observation values (Epoch: 2025-12-06T16:49:52.912Z)
Latitude
-0.00009°
Longitude
134.45371°
Altitude
2,024.446 km
Speed
6.61 km/s
True Right ascension
06h 50m 35s
True Declination
0° 00' 00"
Sunlit
Object was in full shadow at epoch
Visualization orbit readout
Latitude
Unknown
Longitude
Unknown
Altitude
Unknown
Speed
Unknown
Apparent Right ascension
Unknown
Apparent Declination
Unknown
Sunlit
N/A
Visualization observer readout
Local Sidereal Time
14:11:48
Azimuth
Unknown
Elevation
Unknown
Doppler factor
Unknown
Orbital elements
Apogee altitude
2,058.609 km
Perigee altitude
750.767 km
Semi-major axis
7,782.825 km
Eccentricity
0.08402
Inclination
56.1658°
RAAN
102.6495°
Arg. of periapsis
197.5344°
True anomaly
162.55514°
Mean anomaly
159.4856°
Eccentric anomaly
161.04901°
Mean motion
3.16109 °/min
Orbital period
113.88 mins
BSTAR
0.0030721
Loading maneuver chart data...
Computing Atmospheric mass density...

Documentation

Showing up to 5 results
|